GE 6

operational
NORAD ID: 26580 Int'l Des: 2000-067 Owner: AMCG Country: US
HEOCIRCULARGSOGEO

About GE 6

Description loading...

Live Position

Loading 3D Globe...

Upcoming Passes

Altitude History

Altitude vs Time

uPlot chart will show altitude changes over time

Two-Line Element Set

1 26580U 00067A 26063.09419830 .00000076 00000-0 00000+0 0 9997
2 26580 0.0504 306.7725 0003116 39.4699 74.4412 1.00271968 92831
Epoch: Mar 4, 2026 • Age: 24 hours

Current Status

Altitude 35775.8 km
Velocity 3.08 km/s
Sub-Earth Point 0.01°N, 135.04°W
Launch Date Oct 21, 2000
Age 25.3 years
Type other

Technical Details

Classification Payload
Mass 3552.00 kg
Dry Mass 1600.00 kg
Total Mass 3552.00 kg
Length 6.10 m
Diameter 2.50 m
Span 27.00 m
Shape Box + 2 Pan
Manufacturer LMCSS
Bus Type A2100AX
Phase Status Unknown Active Status
Owner/State AMCG/US

Large Constellations

Loading constellations...